Simultaneous Nadir Overpasses (SNOs) Predictions

Prediction of SNOs between NOAA-20 and NOAA-19 Satellite Orbit:

Table of predicted SNOs for the next 14.0 days since TLE Epoch: 8/28/2021
Index Date (NOAA-20) Time (NOAA-20) Lat,Lon (NOAA-20) SZA (NOAA-20 ) Date (NOAA-19) Time (NOAA-19) Lat,Lon (NOAA-19) SZA (NOAA-19 ) Distance(km) Time Diff (sec)
1 09/06/2021 23:05:04 77.96, 169.16 72.91 09/06/2021 23:03:52 77.95, 169.28 72.92 3.31 72
2 09/06/2021 23:55:48 -77.94, -23.43 107.10 09/06/2021 23:54:52 -77.93, -23.55 107.08 3.23 56
3 09/07/2021 00:46:34 77.97, 143.76 72.95 09/07/2021 00:45:52 77.95, 143.84 72.95 2.17 42
4 09/07/2021 01:37:18 -77.95, -48.83 107.07 09/07/2021 01:36:51 -77.98, -48.78 107.04 3.50 27
5 09/07/2021 02:28:04 77.97, 118.36 72.98 09/07/2021 02:27:52 77.96, 118.40 72.98 1.03 12
6 09/07/2021 03:18:48 -77.95, -74.23 107.04 09/07/2021 03:18:51 -77.99, -74.23 107.01 3.84 3
7 09/07/2021 04:09:34 77.97, 92.96 73.01 09/07/2021 04:09:52 77.97, 92.96 73.00 0.12 18
8 09/07/2021 05:00:19 -78.00, -99.83 106.95 09/07/2021 05:00:51 -77.99, -99.67 106.98 3.71 32
9 09/07/2021 05:51:04 77.98, 67.56 73.04 09/07/2021 05:51:52 77.98, 67.52 73.03 1.23 48
10 09/07/2021 06:41:49 -78.00,-125.23 106.92 09/07/2021 06:42:51 -78.00,-125.12 106.95 2.66 62
11 09/07/2021 07:32:38 78.15, 41.32 73.30 09/07/2021 07:33:49 78.11, 42.74 73.11 32.78 71



Historial Predications of SNOs between NOAA-20 and NOAA-19
